TimeCST,TemperatureF,Dew PointF,Humidity,Sea Level PressureIn,VisibilityMPH,Wind Direction,Wind SpeedMPH,Gust SpeedMPH,PrecipitationIn,Events,Conditions,WindDirDegrees,DateUTC
12:53 AM,64.9,57.9,78,30.05,10.0,South,13.8,-,N/A,,Clear,170,2012-11-09 06:53:00
1:53 AM,64.0,57.9,80,30.05,10.0,South,10.4,-,N/A,,Clear,170,2012-11-09 07:53:00
2:53 AM,63.0,57.9,84,30.05,10.0,SSE,9.2,-,N/A,,Clear,160,2012-11-09 08:53:00
3:53 AM,61.0,57.9,90,30.04,10.0,SE,10.4,-,N/A,,Clear,140,2012-11-09 09:53:00
4:41 AM,60.8,57.2,88,30.06,10.0,SSE,9.2,-,N/A,,Mostly Cloudy,150,2012-11-09 10:41:00
4:53 AM,61.0,57.9,90,30.06,10.0,SSE,8.1,-,N/A,,Overcast,150,2012-11-09 10:53:00
5:12 AM,60.8,57.2,88,30.06,10.0,SSE,9.2,-,N/A,,Mostly Cloudy,150,2012-11-09 11:12:00
5:53 AM,60.1,57.9,93,30.06,10.0,SE,9.2,-,N/A,,Mostly Cloudy,140,2012-11-09 11:53:00
6:53 AM,60.1,57.9,93,30.06,8.0,SSE,10.4,-,N/A,,Scattered Clouds,150,2012-11-09 12:53:00
7:53 AM,61.0,59.0,93,30.08,9.0,SSE,8.1,-,N/A,,Mostly Cloudy,150,2012-11-09 13:53:00
8:53 AM,66.0,60.1,81,30.09,10.0,SSE,15.0,-,N/A,,Clear,150,2012-11-09 14:53:00
9:53 AM,70.0,61.0,73,30.08,10.0,South,17.3,25.3,N/A,,Partly Cloudy,170,2012-11-09 15:53:00
10:34 AM,75.2,62.6,65,30.09,10.0,South,21.9,29.9,N/A,,Mostly Cloudy,180,2012-11-09 16:34:00
10:53 AM,75.0,62.1,64,30.07,10.0,South,23.0,29.9,N/A,,Mostly Cloudy,180,2012-11-09 16:53:00
11:00 AM,75.2,62.6,65,30.08,10.0,South,19.6,31.1,N/A,,Mostly Cloudy,180,2012-11-09 17:00:00
11:27 AM,75.2,62.6,65,30.07,10.0,South,18.4,26.5,N/A,,Mostly Cloudy,190,2012-11-09 17:27:00
11:53 AM,80.1,63.0,56,30.05,10.0,South,16.1,24.2,N/A,,Mostly Cloudy,190,2012-11-09 17:53:00
12:53 PM,81.0,59.0,47,30.01,10.0,South,18.4,32.2,N/A,,Partly Cloudy,190,2012-11-09 18:53:00
1:53 PM,82.0,57.0,42,29.98,10.0,SSW,23.0,31.1,N/A,,Clear,200,2012-11-09 19:53:00
2:53 PM,82.9,57.0,41,29.97,10.0,South,16.1,29.9,N/A,,Partly Cloudy,180,2012-11-09 20:53:00
3:53 PM,82.0,57.0,42,29.96,10.0,South,15.0,-,N/A,,Clear,180,2012-11-09 21:53:00
4:53 PM,80.1,55.0,42,29.96,10.0,South,15.0,-,N/A,,Clear,170,2012-11-09 22:53:00
5:53 PM,77.0,54.0,45,29.97,10.0,South,15.0,-,N/A,,Clear,170,2012-11-09 23:53:00
6:53 PM,72.0,53.1,51,29.99,10.0,SSE,11.5,-,N/A,,Clear,160,2012-11-10 00:53:00
7:53 PM,73.9,53.1,48,30.00,10.0,South,17.3,-,N/A,,Clear,170,2012-11-10 01:53:00
8:53 PM,71.1,53.1,53,30.02,10.0,SSE,12.7,-,N/A,,Clear,160,2012-11-10 02:53:00
9:53 PM,66.9,55.0,66,30.03,10.0,SSE,11.5,-,N/A,,Clear,160,2012-11-10 03:53:00
10:53 PM,66.0,57.0,73,30.04,10.0,SSE,10.4,-,N/A,,Clear,150,2012-11-10 04:53:00
11:53 PM,66.0,57.9,75,30.04,10.0,SSE,12.7,-,N/A,,Clear,160,2012-11-10 05:53:00